Location: ??
(30.4792°N, 114.2544°E)
Time: 13:37:00
(UTC+00:00)

COSMOS 2406 - Pass Details

Date: 07 June 2020
Orbit: 843 x 864 km, 71.0° (Epoch: 06 July)

Event Time Altitude Azimuth Distance (km) Brightness Sun altitude
Rises 11:41:02 0° 337° (NNW) 3,442 7.3 -4.1°
Reaches altitude 10° 11:43:31 10° 335° (NNW) 2,501 6.6 -4.6°
Maximum altitude 11:49:13 69° 253° (WSW) 914 3.6 -5.6°
Drops below altitude 10° 11:54:52 10° 171° (S) 2,475 5.3 -6.7°
Sets 11:57:19 0° 168° (SSE) 3,404 5.9 -7.1°
